Weather History for KATP - February, 2014

Change the Weather History Date:

Tuesday, February 4, 2014

  Actual Average Record
Temperature  
Mean Temperature 71 °F -  
Max Temperature 73 °F - - ()
Min Temperature 69 °F - - ()
Cooling Degree Days 6    
Growing Degree Days 21 (Base 50)    
Moisture  
Dew Point 70 °F    
Average Humidity 94    
Maximum Humidity 100    
Minimum Humidity 88    
Precipitation  
Precipitation 0.00 in - - ()
Sea Level Pressure  
Sea Level Pressure 30.02 in    
Wind  
Wind Speed 15 mph (SE)    
Max Wind Speed 23 mph    
Max Gust Speed 32 mph    
Visibility 2 miles    
Events Fog    
T = Trace of Precipitation, MM = Missing Value Source: NWS Daily Summary

Daily Weather History Graph

Daily Weather History Graph

Search for Another Location

Airport or City:

Trip Planner

Search our weather history database for the weather conditions in past years. The results will help you decide how hot, cold, wet, or windy it might be!

Date:

Astronomy

Feb. 04, 2014 Rise Set
Actual Time 6:44 AM CST 5:44 PM CST
Civil Twilight 6:20 AM CST 6:08 PM CST
Nautical Twilight 5:52 AM CST 6:36 PM CST
Astronomical Twilight 5:24 AM CST 7:03 PM CST
Moon 9:55 AM CST (2/4) 11:01 PM CST (2/4)
Length of Visible Light 11h 48m
Length of Day
10h 59m
Waxing Crescent, 29% of the Moon is Illuminated
Feb 4
Waxing Crescent
Feb 6
First Quarter
Feb 14
Full
Feb 22
Last Quarter
Mar 1
New

Hourly Weather History & Observations

Time (CST) Temp. Dew Point Humidity Pressure Visibility Wind Dir Wind Speed Gust Speed Precip Events Conditions
12:15 AM 69.8 °F 68.0 °F 94% 30.07 in 1.8 mi East 15.0 mph - N/A   Overcast
12:35 AM 69.8 °F 68.0 °F 94% 30.07 in 1.5 mi East 15.0 mph - N/A   Overcast
12:55 AM 69.8 °F 68.0 °F 94% 30.06 in 1.2 mi East 15.0 mph - N/A   Overcast
1:15 AM 69.8 °F 68.0 °F 94% 30.06 in 1.2 mi East 15.0 mph - N/A   Overcast
1:35 AM 69.8 °F 68.0 °F 94% 30.06 in 1.0 mi East 12.7 mph - N/A   Overcast
1:55 AM 69.8 °F 68.0 °F 94% 30.05 in 1.5 mi East 13.8 mph - N/A   Overcast
2:15 AM 69.8 °F 68.0 °F 94% 30.05 in 1.2 mi East 16.1 mph - N/A   Overcast
2:35 AM 69.8 °F 68.0 °F 94% 30.05 in 2.0 mi East 16.1 mph - N/A   Overcast
2:55 AM 69.8 °F 68.0 °F 94% 30.04 in 2.0 mi East 15.0 mph - N/A   Overcast
3:15 AM 69.8 °F 68.0 °F 94% 30.05 in 2.0 mi ESE 15.0 mph - N/A   Overcast
3:35 AM 69.8 °F 69.8 °F 100% 30.05 in 2.5 mi ESE 12.7 mph - N/A   Overcast
3:55 AM 69.8 °F 69.8 °F 100% 30.05 in 2.5 mi ESE 12.7 mph - N/A   Overcast
4:15 AM 69.8 °F 69.8 °F 100% 30.05 in 2.0 mi ESE 13.8 mph - N/A   Overcast
4:35 AM 71.6 °F 69.8 °F 94% 30.04 in 2.0 mi ESE 15.0 mph - N/A   Overcast
4:55 AM 71.6 °F 69.8 °F 94% 30.04 in 2.0 mi ESE 15.0 mph - N/A   Overcast
5:15 AM 71.6 °F 69.8 °F 94% 30.05 in 2.0 mi SE 16.1 mph - N/A   Mostly Cloudy
5:35 AM 71.6 °F 69.8 °F 94% 30.05 in 2.5 mi SE 15.0 mph - N/A   Overcast
5:55 AM 71.6 °F 69.8 °F 94% 30.05 in 2.5 mi SE 15.0 mph - N/A   Overcast
6:15 AM 71.6 °F 69.8 °F 94% 30.05 in 2.0 mi SE 16.1 mph - N/A   Overcast
6:35 AM 71.6 °F 69.8 °F 94% 30.05 in 2.0 mi SE 17.3 mph - N/A   Mostly Cloudy
6:55 AM 71.6 °F 69.8 °F 94% 30.05 in 2.0 mi SE 16.1 mph - N/A   Mostly Cloudy
7:15 AM 71.6 °F 71.6 °F 100% 30.04 in 1.8 mi SE 18.4 mph - N/A   Overcast
7:35 AM 71.6 °F 71.6 °F 100% 30.04 in 1.8 mi SE 18.4 mph - N/A   Overcast
7:55 AM 71.6 °F 71.6 °F 100% 30.04 in 1.2 mi SE 21.9 mph - N/A   Overcast
8:15 AM 71.6 °F 71.6 °F 100% 30.04 in 1.8 mi SE 23.0 mph - N/A   Mostly Cloudy
8:35 AM 71.6 °F 71.6 °F 100% 30.04 in 1.2 mi SE 21.9 mph - N/A   Overcast
8:55 AM 73.4 °F 71.6 °F 94% 30.05 in 1.5 mi SE 19.6 mph - N/A   Overcast
9:15 AM 71.6 °F 71.6 °F 100% 30.05 in 0.2 mi SE 20.7 mph - N/A Fog Fog
9:35 AM 73.4 °F 71.6 °F 94% 30.05 in 1.8 mi SE 19.6 mph - N/A   Mostly Cloudy
9:55 AM 73.4 °F 71.6 °F 94% 30.05 in 2.5 mi SE 20.7 mph - N/A   Clear
10:15 AM 73.4 °F 71.6 °F 94% 30.05 in 3.0 mi SE 19.6 mph - N/A   Clear
10:35 AM 73.4 °F 71.6 °F 94% 30.04 in 3.0 mi SE 21.9 mph 28.8 mph N/A   Clear
10:55 AM 73.4 °F 71.6 °F 94% 30.03 in 3.0 mi SE 21.9 mph - N/A   Clear
11:15 AM 73.4 °F 71.6 °F 94% 30.01 in 3.0 mi SE 23.0 mph 32.2 mph N/A   Clear
11:35 AM 73.4 °F 69.8 °F 88% 30.01 in 3.0 mi SE 21.9 mph - N/A   Clear
11:55 AM 73.4 °F 69.8 °F 88% 30.00 in 3.0 mi SSE 18.4 mph - N/A   Clear
12:15 PM 73.4 °F 69.8 °F 88% 29.99 in 3.0 mi SSE 16.1 mph 23.0 mph N/A   Clear
12:35 PM 73.4 °F 69.8 °F 88% 29.98 in 2.5 mi SSE 15.0 mph - N/A   Clear
12:55 PM 73.4 °F 69.8 °F 88% 29.98 in 2.5 mi SSE 13.8 mph - N/A   Clear
1:15 PM 73.4 °F 69.8 °F 88% 29.98 in 2.5 mi SSE 13.8 mph - N/A   Clear
1:35 PM 73.4 °F 69.8 °F 88% 29.97 in 2.5 mi SSE 12.7 mph 19.6 mph N/A   Scattered Clouds
1:55 PM 73.4 °F 69.8 °F 88% 29.98 in - South 15.0 mph - N/A   Unknown
2:15 PM 73.4 °F 69.8 °F 88% 29.97 in 2.5 mi SSE 11.5 mph 19.6 mph N/A   Partly Cloudy
2:35 PM 73.4 °F 69.8 °F 88% 29.97 in 2.5 mi SSE 13.8 mph - N/A   Scattered Clouds
2:55 PM 73.4 °F 69.8 °F 88% 29.96 in 2.5 mi SSE 13.8 mph - N/A   Scattered Clouds
3:15 PM 73.4 °F 69.8 °F 88% 29.97 in 2.5 mi SSE 13.8 mph 21.9 mph N/A   Scattered Clouds
3:35 PM 73.4 °F 69.8 °F 88% 29.97 in 2.5 mi South 18.4 mph - N/A   Mostly Cloudy
3:55 PM 73.4 °F 69.8 °F 88% 29.96 in 2.5 mi SSE 15.0 mph 21.9 mph N/A   Partly Cloudy
4:15 PM 73.4 °F 71.6 °F 94% 29.97 in 2.5 mi South 19.6 mph - N/A   Clear
4:35 PM 73.4 °F 71.6 °F 94% 29.99 in 2.5 mi South 15.0 mph - N/A   Mostly Cloudy
4:55 PM 73.4 °F 71.6 °F 94% 29.98 in 2.5 mi South 18.4 mph - N/A   Overcast
5:15 PM 73.4 °F 71.6 °F 94% 29.98 in 2.5 mi South 18.4 mph - N/A   Partly Cloudy
5:35 PM 73.4 °F 71.6 °F 94% 29.98 in 2.0 mi South 20.7 mph - N/A   Clear
5:55 PM 73.4 °F 71.6 °F 94% 29.97 in 2.0 mi SSE 19.6 mph 26.5 mph N/A   Partly Cloudy
6:15 PM 73.4 °F 71.6 °F 94% 29.98 in 2.0 mi South 19.6 mph - N/A   Partly Cloudy
6:35 PM 73.4 °F 71.6 °F 94% 29.99 in 2.0 mi South 13.8 mph 21.9 mph N/A   Partly Cloudy
6:55 PM 73.4 °F 71.6 °F 94% 29.99 in 2.0 mi South 15.0 mph - N/A   Clear
7:15 PM 73.4 °F 71.6 °F 94% 29.99 in 2.0 mi South 17.3 mph - N/A   Clear
7:35 PM 73.4 °F 71.6 °F 94% 30.00 in 2.0 mi South 13.8 mph 21.9 mph N/A   Clear
7:55 PM 73.4 °F 71.6 °F 94% 30.00 in 2.0 mi South 12.7 mph 19.6 mph N/A   Clear
8:15 PM 73.4 °F 71.6 °F 94% 30.00 in 2.0 mi South 12.7 mph 21.9 mph N/A   Clear
8:35 PM 73.4 °F 71.6 °F 94% 30.00 in 2.0 mi South 11.5 mph 21.9 mph N/A   Clear
8:55 PM 73.4 °F 71.6 °F 94% 30.01 in 2.0 mi South 12.7 mph 21.9 mph N/A   Clear
9:15 PM 73.4 °F 71.6 °F 94% 30.01 in 2.0 mi South 12.7 mph 19.6 mph N/A   Partly Cloudy
9:35 PM 73.4 °F 71.6 °F 94% 30.01 in 2.0 mi South 10.4 mph 17.3 mph N/A   Scattered Clouds
9:55 PM 73.4 °F 71.6 °F 94% 30.02 in 2.0 mi Variable 5.8 mph 15.0 mph N/A   Mostly Cloudy
10:15 PM 73.4 °F 71.6 °F 94% 30.03 in 2.0 mi Variable 4.6 mph - N/A   Mostly Cloudy
10:35 PM 73.4 °F 71.6 °F 94% 30.03 in 1.8 mi Variable 3.5 mph - N/A   Overcast
10:55 PM 73.4 °F 71.6 °F 94% 30.04 in 0.8 mi Calm Calm - N/A   Overcast
11:15 PM 73.4 °F 71.6 °F 94% 30.04 in 0.2 mi Calm Calm - N/A Fog Fog
11:35 PM 73.4 °F 71.6 °F 94% 30.04 in 0.2 mi Calm Calm - N/A Fog Fog
11:55 PM 71.6 °F 71.6 °F 100% 30.05 in 0.2 mi Calm Calm - N/A Fog Fog